Time,TemperatureF,DewpointF,PressureIn,WindDirection,WindDirectionDegrees,WindSpeedMPH,WindSpeedGustMPH,Humidity,HourlyPrecipIn,Conditions,Clouds,dailyrainin,SoftwareType,DateUTC
2013-04-28 00:01:00,50.9,38.0,30.26,South,175,0.0,0.0,61,0.00,,---,0.00,VWS V14.01,2013-04-28 04:01:00,
2013-04-28 00:02:00,50.9,38.0,30.26,South,175,0.0,0.0,61,0.00,,---,0.00,VWS V14.01,2013-04-28 04:02:00,
2013-04-28 00:03:00,50.8,37.4,30.26,South,175,0.0,0.0,60,0.00,,---,0.00,VWS V14.01,2013-04-28 04:03:00,
2013-04-28 00:08:00,50.7,37.8,30.26,South,175,0.0,0.0,61,0.00,,---,0.00,VWS V14.01,2013-04-28 04:08:00,
2013-04-28 00:13:00,50.6,37.7,30.26,South,175,0.0,1.0,61,0.00,,---,0.00,VWS V14.01,2013-04-28 04:13:00,
2013-04-28 00:18:00,50.6,37.7,30.26,South,175,0.0,1.0,61,0.00,,---,0.00,VWS V14.01,2013-04-28 04:18:00,
2013-04-28 00:23:00,50.5,37.6,30.26,South,175,0.0,1.0,61,0.00,,---,0.00,VWS V14.01,2013-04-28 04:23:00,
2013-04-28 00:28:00,50.5,37.6,30.26,South,175,0.0,1.0,61,0.00,,---,0.00,VWS V14.01,2013-04-28 04:28:00,
2013-04-28 00:33:00,50.4,37.5,30.26,South,175,0.0,0.0,61,0.00,,---,0.00,VWS V14.01,2013-04-28 04:33:00,
2013-04-28 00:39:00,50.4,37.0,30.26,South,175,0.0,0.0,60,0.00,,---,0.00,VWS V14.01,2013-04-28 04:39:00,
2013-04-28 00:44:00,50.5,37.2,30.26,South,175,0.0,0.0,60,0.00,,---,0.00,VWS V14.01,2013-04-28 04:44:00,
2013-04-28 00:49:00,50.6,37.2,30.26,South,175,0.0,0.0,60,0.00,,---,0.00,VWS V14.01,2013-04-28 04:49:00,
2013-04-28 00:54:00,50.7,37.3,30.26,South,175,0.0,0.0,60,0.00,,---,0.00,VWS V14.01,2013-04-28 04:54:00,
2013-04-28 00:59:00,50.7,37.3,30.26,South,175,0.0,2.0,60,0.00,,---,0.00,VWS V14.01,2013-04-28 04:59:00,
2013-04-28 01:04:00,50.9,37.5,30.26,South,175,0.0,1.0,60,0.00,,---,0.00,VWS V14.01,2013-04-28 05:04:00,
2013-04-28 01:09:00,50.9,37.5,30.26,South,175,0.0,1.0,60,0.00,,---,0.00,VWS V14.01,2013-04-28 05:09:00,
2013-04-28 01:14:00,50.8,37.0,30.25,South,175,0.0,2.0,59,0.00,,---,0.00,VWS V14.01,2013-04-28 05:14:00,
2013-04-28 01:19:00,50.8,37.0,30.25,South,175,0.0,2.0,59,0.00,,---,0.00,VWS V14.01,2013-04-28 05:19:00,
2013-04-28 01:25:00,50.9,37.1,30.25,South,175,0.0,2.0,59,0.00,,---,0.00,VWS V14.01,2013-04-28 05:25:00,
2013-04-28 01:30:00,50.8,37.0,30.25,South,175,0.0,2.0,59,0.00,,---,0.00,VWS V14.01,2013-04-28 05:30:00,
2013-04-28 01:35:00,50.8,36.6,30.25,South,175,0.0,2.0,58,0.00,,---,0.00,VWS V14.01,2013-04-28 05:35:00,
2013-04-28 01:40:00,50.8,36.6,30.25,South,175,0.0,2.0,58,0.00,,---,0.00,VWS V14.01,2013-04-28 05:40:00,
2013-04-28 01:45:00,50.8,36.6,30.25,South,175,0.0,2.0,58,0.00,,---,0.00,VWS V14.01,2013-04-28 05:45:00,
2013-04-28 01:50:00,50.8,36.6,30.25,South,175,0.0,2.0,58,0.00,,---,0.00,VWS V14.01,2013-04-28 05:50:00,
2013-04-28 01:55:00,50.7,36.5,30.25,South,175,0.0,2.0,58,0.00,,---,0.00,VWS V14.01,2013-04-28 05:55:00,
2013-04-28 02:00:00,50.7,36.5,30.24,South,175,0.0,2.0,58,0.00,,---,0.00,VWS V14.01,2013-04-28 06:00:00,
2013-04-28 02:05:00,50.7,36.5,30.24,South,175,0.0,1.0,58,0.00,,---,0.00,VWS V14.01,2013-04-28 06:05:00,
2013-04-28 02:10:00,50.6,36.4,30.24,South,175,0.0,1.0,58,0.00,,---,0.00,VWS V14.01,2013-04-28 06:10:00,
2013-04-28 02:15:00,50.5,36.3,30.24,South,175,0.0,1.0,58,0.00,,---,0.00,VWS V14.01,2013-04-28 06:15:00,
2013-04-28 02:21:00,50.4,36.6,30.24,South,175,0.0,1.0,59,0.00,,---,0.00,VWS V14.01,2013-04-28 06:21:00,
2013-04-28 02:26:00,50.3,36.5,30.23,South,175,0.0,1.0,59,0.00,,---,0.00,VWS V14.01,2013-04-28 06:26:00,
2013-04-28 02:31:00,50.3,36.5,30.23,South,175,0.0,0.0,59,0.00,,---,0.00,VWS V14.01,2013-04-28 06:31:00,
2013-04-28 02:36:00,50.3,36.5,30.23,South,175,0.0,0.0,59,0.00,,---,0.00,VWS V14.01,2013-04-28 06:36:00,
2013-04-28 02:41:00,50.2,36.9,30.23,South,175,0.0,0.0,60,0.00,,---,0.00,VWS V14.01,2013-04-28 06:41:00,
2013-04-28 02:46:00,49.9,36.6,30.23,South,175,0.0,0.0,60,0.00,,---,0.00,VWS V14.01,2013-04-28 06:46:00,
2013-04-28 02:51:00,49.7,36.4,30.23,South,175,0.0,1.0,60,0.00,,---,0.00,VWS V14.01,2013-04-28 06:51:00,
2013-04-28 02:56:00,49.7,36.4,30.23,South,175,0.0,1.0,60,0.00,,---,0.00,VWS V14.01,2013-04-28 06:56:00,
2013-04-28 03:01:00,49.6,36.3,30.23,South,175,0.0,0.0,60,0.00,,---,0.00,VWS V14.01,2013-04-28 07:01:00,
2013-04-28 03:07:00,49.5,36.2,30.23,South,175,0.0,0.0,60,0.00,,---,0.00,VWS V14.01,2013-04-28 07:07:00,
2013-04-28 03:12:00,49.5,36.6,30.23,South,175,0.0,0.0,61,0.00,,---,0.00,VWS V14.01,2013-04-28 07:12:00,
2013-04-28 03:17:00,49.4,36.5,30.23,South,175,0.0,0.0,61,0.00,,---,0.00,VWS V14.01,2013-04-28 07:17:00,
2013-04-28 03:22:00,49.4,36.5,30.23,South,175,0.0,0.0,61,0.00,,---,0.00,VWS V14.01,2013-04-28 07:22:00,
2013-04-28 03:27:00,49.4,36.9,30.23,South,175,0.0,1.0,62,0.00,,---,0.00,VWS V14.01,2013-04-28 07:27:00,
2013-04-28 03:32:00,49.3,36.8,30.23,South,175,0.0,0.0,62,0.00,,---,0.00,VWS V14.01,2013-04-28 07:32:00,
2013-04-28 03:37:00,49.2,36.8,30.23,South,175,0.0,0.0,62,0.00,,---,0.00,VWS V14.01,2013-04-28 07:37:00,
2013-04-28 03:42:00,49.1,36.7,30.23,South,175,0.0,0.0,62,0.00,,---,0.00,VWS V14.01,2013-04-28 07:42:00,
2013-04-28 03:48:00,49.2,37.2,30.23,South,175,0.0,1.0,63,0.00,,---,0.00,VWS V14.01,2013-04-28 07:48:00,
2013-04-28 03:53:00,49.3,36.8,30.23,South,175,0.0,1.0,62,0.00,,---,0.00,VWS V14.01,2013-04-28 07:53:00,
2013-04-28 03:58:00,49.4,37.3,30.23,South,175,0.0,1.0,63,0.00,,---,0.00,VWS V14.01,2013-04-28 07:58:00,
2013-04-28 04:03:00,49.6,37.5,30.22,South,175,0.0,1.0,63,0.00,,---,0.00,VWS V14.01,2013-04-28 08:03:00,
2013-04-28 04:08:00,49.9,37.8,30.23,South,175,0.0,1.0,63,0.00,,---,0.00,VWS V14.01,2013-04-28 08:08:00,
2013-04-28 04:13:00,49.9,37.8,30.22,South,175,0.0,1.0,63,0.00,,---,0.00,VWS V14.01,2013-04-28 08:13:00,
2013-04-28 04:18:00,49.8,37.7,30.22,South,175,0.0,1.0,63,0.00,,---,0.00,VWS V14.01,2013-04-28 08:18:00,
2013-04-28 04:23:00,49.7,38.0,30.22,South,175,0.0,1.0,64,0.00,,---,0.00,VWS V14.01,2013-04-28 08:23:00,
2013-04-28 04:28:00,49.8,38.1,30.22,South,175,0.0,1.0,64,0.00,,---,0.00,VWS V14.01,2013-04-28 08:28:00,
2013-04-28 04:34:00,49.9,37.8,30.22,South,175,0.0,0.0,63,0.00,,---,0.00,VWS V14.01,2013-04-28 08:34:00,
2013-04-28 04:39:00,49.8,38.1,30.22,South,175,0.0,0.0,64,0.00,,---,0.00,VWS V14.01,2013-04-28 08:39:00,
2013-04-28 04:44:00,49.7,38.0,30.22,South,175,0.0,0.0,64,0.00,,---,0.00,VWS V14.01,2013-04-28 08:44:00,
2013-04-28 04:49:00,49.5,37.8,30.22,South,175,0.0,0.0,64,0.00,,---,0.00,VWS V14.01,2013-04-28 08:49:00,
2013-04-28 04:54:00,49.2,37.6,30.22,South,175,0.0,0.0,64,0.00,,---,0.00,VWS V14.01,2013-04-28 08:54:00,
2013-04-28 04:59:00,49.1,37.9,30.22,South,175,0.0,0.0,65,0.00,,---,0.00,VWS V14.01,2013-04-28 08:59:00,
2013-04-28 05:04:00,48.8,37.6,30.22,South,175,0.0,0.0,65,0.00,,---,0.00,VWS V14.01,2013-04-28 09:04:00,
2013-04-28 05:09:00,48.6,37.4,30.22,South,175,0.0,0.0,65,0.00,,---,0.00,VWS V14.01,2013-04-28 09:09:00,
2013-04-28 05:14:00,48.7,37.9,30.22,South,175,0.0,0.0,66,0.00,,---,0.00,VWS V14.01,2013-04-28 09:14:00,
2013-04-28 05:20:00,48.6,37.4,30.22,South,175,0.0,0.0,65,0.00,,---,0.00,VWS V14.01,2013-04-28 09:20:00,
2013-04-28 05:25:00,48.7,37.5,30.22,South,175,0.0,0.0,65,0.00,,---,0.00,VWS V14.01,2013-04-28 09:25:00,
2013-04-28 05:30:00,48.7,37.5,30.22,South,175,0.0,0.0,65,0.00,,---,0.00,VWS V14.01,2013-04-28 09:30:00,
2013-04-28 05:35:00,48.7,37.5,30.22,South,175,0.0,0.0,65,0.00,,---,0.00,VWS V14.01,2013-04-28 09:35:00,
2013-04-28 05:40:00,48.7,37.5,30.22,South,175,0.0,0.0,65,0.00,,---,0.00,VWS V14.01,2013-04-28 09:40:00,
2013-04-28 05:45:00,48.7,37.5,30.22,South,175,0.0,0.0,65,0.00,,---,0.00,VWS V14.01,2013-04-28 09:45:00,
2013-04-28 05:50:00,48.8,37.6,30.22,South,175,0.0,0.0,65,0.00,,---,0.00,VWS V14.01,2013-04-28 09:50:00,
2013-04-28 05:55:00,49.0,37.8,30.22,South,175,0.0,0.0,65,0.00,,---,0.00,VWS V14.01,2013-04-28 09:55:00,
2013-04-28 06:00:00,49.1,37.9,30.23,South,175,0.0,0.0,65,0.00,,---,0.00,VWS V14.01,2013-04-28 10:00:00,
2013-04-28 06:06:00,49.1,37.9,30.23,South,175,0.0,0.0,65,0.00,,---,0.00,VWS V14.01,2013-04-28 10:06:00,
2013-04-28 06:11:00,48.9,37.7,30.23,South,175,0.0,0.0,65,0.00,,---,0.00,VWS V14.01,2013-04-28 10:11:00,
2013-04-28 06:16:00,48.9,37.7,30.23,South,175,0.0,0.0,65,0.00,,---,0.00,VWS V14.01,2013-04-28 10:16:00,
2013-04-28 06:21:00,48.8,37.6,30.23,South,175,0.0,0.0,65,0.00,,---,0.00,VWS V14.01,2013-04-28 10:21:00,
2013-04-28 06:26:00,48.4,37.6,30.23,South,175,0.0,0.0,66,0.00,,---,0.00,VWS V14.01,2013-04-28 10:26:00,
2013-04-28 06:31:00,48.0,37.2,30.24,South,175,0.0,0.0,66,0.00,,---,0.00,VWS V14.01,2013-04-28 10:31:00,
2013-04-28 06:36:00,47.8,37.0,30.24,WSW,255,0.0,0.0,66,0.00,,---,0.00,VWS V14.01,2013-04-28 10:36:00,
2013-04-28 06:41:00,47.7,36.9,30.24,WSW,255,0.0,0.0,66,0.00,,---,0.00,VWS V14.01,2013-04-28 10:41:00,
2013-04-28 06:46:00,47.6,37.2,30.24,WSW,255,0.0,0.0,67,0.00,,---,0.00,VWS V14.01,2013-04-28 10:46:00,
2013-04-28 06:51:00,47.6,37.2,30.24,WSW,255,0.0,0.0,67,0.00,,---,0.00,VWS V14.01,2013-04-28 10:51:00,
2013-04-28 06:57:00,47.8,37.4,30.24,WSW,255,0.0,0.0,67,0.00,,---,0.00,VWS V14.01,2013-04-28 10:57:00,
2013-04-28 07:02:00,48.0,37.2,30.24,WSW,255,0.0,0.0,66,0.00,,---,0.00,VWS V14.01,2013-04-28 11:02:00,
2013-04-28 07:07:00,48.2,37.4,30.25,WSW,255,0.0,0.0,66,0.00,,---,0.00,VWS V14.01,2013-04-28 11:07:00,
2013-04-28 07:12:00,48.4,37.6,30.25,WSW,255,0.0,0.0,66,0.00,,---,0.00,VWS V14.01,2013-04-28 11:12:00,
2013-04-28 07:17:00,48.6,37.8,30.25,WSW,255,0.0,0.0,66,0.00,,---,0.00,VWS V14.01,2013-04-28 11:17:00,
2013-04-28 07:22:00,48.8,38.3,30.25,WSW,255,0.0,0.0,67,0.00,,---,0.00,VWS V14.01,2013-04-28 11:22:00,
2013-04-28 07:27:00,48.8,38.3,30.26,WSW,255,0.0,0.0,67,0.00,,---,0.00,VWS V14.01,2013-04-28 11:27:00,
2013-04-28 07:32:00,48.7,39.4,30.26,WSW,255,0.0,0.0,70,0.00,,---,0.00,VWS V14.01,2013-04-28 11:32:00,
2013-04-28 07:37:00,48.6,39.3,30.26,WSW,255,0.0,0.0,70,0.00,,---,0.00,VWS V14.01,2013-04-28 11:37:00,
2013-04-28 07:43:00,48.6,39.3,30.26,WSW,255,0.0,0.0,70,0.00,,---,0.00,VWS V14.01,2013-04-28 11:43:00,
2013-04-28 07:48:00,48.8,38.7,30.27,WSW,255,0.0,0.0,68,0.00,,---,0.00,VWS V14.01,2013-04-28 11:48:00,
2013-04-28 07:53:00,49.1,38.6,30.27,WSW,255,0.0,0.0,67,0.00,,---,0.00,VWS V14.01,2013-04-28 11:53:00,
2013-04-28 07:58:00,49.4,38.9,30.27,WSW,255,0.0,0.0,67,0.00,,---,0.00,VWS V14.01,2013-04-28 11:58:00,
2013-04-28 08:03:00,49.8,39.3,30.27,WSW,255,0.0,0.0,67,0.00,,---,0.00,VWS V14.01,2013-04-28 12:03:00,
2013-04-28 08:08:00,50.3,39.8,30.28,WSW,255,0.0,0.0,67,0.00,,---,0.00,VWS V14.01,2013-04-28 12:08:00,
2013-04-28 08:13:00,50.8,39.9,30.28,WSW,255,0.0,0.0,66,0.00,,---,0.00,VWS V14.01,2013-04-28 12:13:00,
2013-04-28 08:18:00,51.4,40.0,30.28,WSW,255,0.0,0.0,65,0.00,,---,0.00,VWS V14.01,2013-04-28 12:18:00,
2013-04-28 08:23:00,51.9,40.5,30.28,WSW,255,0.0,1.0,65,0.00,,---,0.00,VWS V14.01,2013-04-28 12:23:00,
2013-04-28 08:28:00,52.4,41.0,30.27,WSW,255,0.0,1.0,65,0.00,,---,0.00,VWS V14.01,2013-04-28 12:28:00,
2013-04-28 08:34:00,52.9,41.1,30.27,WSW,255,0.0,1.0,64,0.00,,---,0.00,VWS V14.01,2013-04-28 12:34:00,
2013-04-28 08:39:00,53.5,41.6,30.27,WSW,255,0.0,1.0,64,0.00,,---,0.00,VWS V14.01,2013-04-28 12:39:00,
2013-04-28 08:44:00,54.1,41.4,30.27,WSW,255,0.0,2.0,62,0.00,,---,0.00,VWS V14.01,2013-04-28 12:44:00,
2013-04-28 08:49:00,54.8,41.6,30.27,WSW,255,0.0,2.0,61,0.00,,---,0.00,VWS V14.01,2013-04-28 12:49:00,
2013-04-28 08:54:00,55.3,41.7,30.27,SW,236,2.0,2.0,60,0.00,,---,0.00,VWS V14.01,2013-04-28 12:54:00,
2013-04-28 08:59:00,55.7,41.2,30.27,SW,234,0.0,3.0,58,0.00,,---,0.00,VWS V14.01,2013-04-28 12:59:00,
2013-04-28 09:04:00,56.2,41.6,30.27,SW,234,0.0,1.0,58,0.00,,---,0.00,VWS V14.01,2013-04-28 13:04:00,
2013-04-28 09:09:00,56.9,42.3,30.27,SW,234,1.0,1.0,58,0.00,,---,0.00,VWS V14.01,2013-04-28 13:09:00,
2013-04-28 09:14:00,57.5,41.9,30.27,SW,232,0.0,4.0,56,0.00,,---,0.00,VWS V14.01,2013-04-28 13:14:00,
2013-04-28 09:19:00,57.8,41.8,30.27,West,259,2.0,4.0,55,0.00,,---,0.00,VWS V14.01,2013-04-28 13:19:00,
2013-04-28 09:25:00,57.9,41.8,30.26,WSW,257,0.0,4.0,55,0.00,,---,0.00,VWS V14.01,2013-04-28 13:25:00,
2013-04-28 09:30:00,58.5,42.9,30.26,SW,222,0.0,4.0,56,0.00,,---,0.00,VWS V14.01,2013-04-28 13:30:00,
2013-04-28 09:35:00,59.0,42.9,30.26,SW,222,0.0,3.0,55,0.00,,---,0.00,VWS V14.01,2013-04-28 13:35:00,
2013-04-28 09:40:00,59.0,42.4,30.26,SW,223,2.0,4.0,54,0.00,,---,0.00,VWS V14.01,2013-04-28 13:40:00,
2013-04-28 09:45:00,59.0,41.9,30.26,WSW,244,0.0,4.0,53,0.00,,---,0.00,VWS V14.01,2013-04-28 13:45:00,
2013-04-28 09:50:00,59.6,43.0,30.26,West,265,1.0,4.0,54,0.00,,---,0.00,VWS V14.01,2013-04-28 13:50:00,
2013-04-28 09:55:00,59.7,42.6,30.26,ENE,57,0.0,5.0,53,0.00,,---,0.00,VWS V14.01,2013-04-28 13:55:00,
2013-04-28 10:00:00,59.7,42.6,30.26,SW,221,0.0,1.0,53,0.00,,---,0.00,VWS V14.01,2013-04-28 14:00:00,
2013-04-28 10:05:00,59.9,42.7,30.26,WNW,286,0.0,3.0,53,0.00,,---,0.00,VWS V14.01,2013-04-28 14:05:00,
2013-04-28 10:10:00,60.3,43.1,30.26,NW,306,0.0,4.0,53,0.00,,---,0.00,VWS V14.01,2013-04-28 14:10:00,
2013-04-28 10:16:00,60.8,45.0,30.26,WNW,295,0.0,4.0,56,0.00,,---,0.00,VWS V14.01,2013-04-28 14:16:00,
2013-04-28 10:21:00,61.2,43.5,30.26,WNW,294,2.0,4.0,52,0.00,,---,0.00,VWS V14.01,2013-04-28 14:21:00,
2013-04-28 10:26:00,61.4,43.6,30.26,WNW,294,0.0,4.0,52,0.00,,---,0.00,VWS V14.01,2013-04-28 14:26:00,
2013-04-28 10:31:00,61.8,43.5,30.25,WNW,294,0.0,0.0,51,0.00,,---,0.00,VWS V14.01,2013-04-28 14:31:00,
2013-04-28 10:36:00,62.3,44.0,30.25,West,261,0.0,4.0,51,0.00,,---,0.00,VWS V14.01,2013-04-28 14:36:00,
2013-04-28 10:41:00,62.3,44.0,30.25,West,263,0.0,4.0,51,0.00,,---,0.00,VWS V14.01,2013-04-28 14:41:00,
2013-04-28 10:46:00,62.7,43.8,30.25,West,263,1.0,4.0,50,0.00,,---,0.00,VWS V14.01,2013-04-28 14:46:00,
2013-04-28 10:51:00,63.1,44.2,30.25,West,263,0.0,4.0,50,0.00,,---,0.00,VWS V14.01,2013-04-28 14:51:00,
2013-04-28 10:56:00,63.7,45.2,30.25,West,263,0.0,4.0,51,0.00,,---,0.00,VWS V14.01,2013-04-28 14:56:00,
2013-04-28 11:02:00,64.3,43.7,30.25,West,263,0.0,0.0,47,0.00,,---,0.00,VWS V14.01,2013-04-28 15:02:00,
2013-04-28 11:07:00,64.9,43.7,30.25,West,263,0.0,3.0,46,0.00,,---,0.00,VWS V14.01,2013-04-28 15:07:00,
2013-04-28 11:12:00,65.4,44.7,30.25,WSW,244,0.0,3.0,47,0.00,,---,0.00,VWS V14.01,2013-04-28 15:12:00,
2013-04-28 11:17:00,66.1,45.3,30.25,SSW,200,4.0,4.0,47,0.00,,---,0.00,VWS V14.01,2013-04-28 15:17:00,
2013-04-28 11:22:00,66.0,44.1,30.25,SW,223,0.0,4.0,45,0.00,,---,0.00,VWS V14.01,2013-04-28 15:22:00,
2013-04-28 11:27:00,65.9,44.6,30.25,SSW,204,0.0,5.0,46,0.00,,---,0.00,VWS V14.01,2013-04-28 15:27:00,
2013-04-28 11:32:00,65.7,45.5,30.25,SE,144,2.0,2.0,48,0.00,,---,0.00,VWS V14.01,2013-04-28 15:32:00,
2013-04-28 11:37:00,66.1,45.3,30.25,SSW,213,4.0,4.0,47,0.00,,---,0.00,VWS V14.01,2013-04-28 15:37:00,
2013-04-28 11:42:00,65.9,44.6,30.25,WSW,249,0.0,5.0,46,0.00,,---,0.00,VWS V14.01,2013-04-28 15:42:00,
2013-04-28 11:48:00,65.7,43.8,30.25,West,279,1.0,5.0,45,0.00,,---,0.00,VWS V14.01,2013-04-28 15:48:00,
2013-04-28 11:53:00,66.0,44.7,30.25,SSW,192,0.0,5.0,46,0.00,,---,0.00,VWS V14.01,2013-04-28 15:53:00,
2013-04-28 11:58:00,66.2,44.8,30.25,WSW,241,0.0,5.0,46,0.00,,---,0.00,VWS V14.01,2013-04-28 15:58:00,
2013-04-28 12:03:00,65.8,43.9,30.25,SSW,205,0.0,4.0,45,0.00,,---,0.00,VWS V14.01,2013-04-28 16:03:00,
2013-04-28 12:08:00,65.8,45.6,30.24,SSW,205,0.0,4.0,48,0.00,,---,0.00,VWS V14.01,2013-04-28 16:08:00,
2013-04-28 12:13:00,66.5,45.7,30.24,SSW,205,0.0,4.0,47,0.00,,---,0.00,VWS V14.01,2013-04-28 16:13:00,
2013-04-28 12:18:00,67.0,45.6,30.23,South,189,0.0,5.0,46,0.00,,---,0.00,VWS V14.01,2013-04-28 16:18:00,
2013-04-28 12:23:00,67.3,46.4,30.23,SW,236,1.0,5.0,47,0.00,,---,0.00,VWS V14.01,2013-04-28 16:23:00,
2013-04-28 12:28:00,67.6,46.7,30.23,South,188,0.0,5.0,47,0.00,,---,0.00,VWS V14.01,2013-04-28 16:28:00,
2013-04-28 12:33:00,67.2,46.9,30.23,SSW,201,2.0,2.0,48,0.00,,---,0.00,VWS V14.01,2013-04-28 16:33:00,
2013-04-28 12:39:00,67.0,46.7,30.22,SSW,196,0.0,4.0,48,0.00,,---,0.00,VWS V14.01,2013-04-28 16:39:00,
2013-04-28 12:44:00,67.0,46.1,30.22,NNE,19,0.0,4.0,47,0.00,,---,0.00,VWS V14.01,2013-04-28 16:44:00,
2013-04-28 12:49:00,67.5,46.0,30.22,South,190,3.0,5.0,46,0.00,,---,0.00,VWS V14.01,2013-04-28 16:49:00,
2013-04-28 12:54:00,67.8,45.1,30.22,NW,310,0.0,5.0,44,0.00,,---,0.00,VWS V14.01,2013-04-28 16:54:00,
2013-04-28 12:59:00,67.6,43.7,30.22,SSW,208,1.0,5.0,42,0.00,,---,0.00,VWS V14.01,2013-04-28 16:59:00,
2013-04-28 13:04:00,67.0,43.8,30.22,SW,223,0.0,2.0,43,0.00,,---,0.00,VWS V14.01,2013-04-28 17:04:00,
2013-04-28 13:09:00,66.7,44.1,30.22,WSW,248,0.0,4.0,44,0.00,,---,0.00,VWS V14.01,2013-04-28 17:09:00,
2013-04-28 13:14:00,66.5,43.9,30.22,SSW,206,0.0,4.0,44,0.00,,---,0.00,VWS V14.01,2013-04-28 17:14:00,
2013-04-28 13:19:00,66.1,44.2,30.22,West,263,0.0,5.0,45,0.00,,---,0.00,VWS V14.01,2013-04-28 17:19:00,
2013-04-28 13:24:00,66.7,45.3,30.22,SSW,194,1.0,5.0,46,0.00,,---,0.00,VWS V14.01,2013-04-28 17:24:00,
2013-04-28 13:30:00,67.5,45.4,30.22,South,186,1.0,5.0,45,0.00,,---,0.00,VWS V14.01,2013-04-28 17:30:00,
2013-04-28 13:35:00,67.3,45.8,30.22,South,183,2.0,6.0,46,0.00,,---,0.00,VWS V14.01,2013-04-28 17:35:00,
2013-04-28 13:40:00,67.0,45.0,30.22,SSW,209,2.0,6.0,45,0.00,,---,0.00,VWS V14.01,2013-04-28 17:40:00,
2013-04-28 13:45:00,66.8,45.4,30.21,SSW,195,1.0,6.0,46,0.00,,---,0.00,VWS V14.01,2013-04-28 17:45:00,
2013-04-28 13:50:00,66.8,45.9,30.21,South,190,0.0,6.0,47,0.00,,---,0.00,VWS V14.01,2013-04-28 17:50:00,
2013-04-28 13:55:00,67.2,45.7,30.21,South,178,0.0,6.0,46,0.00,,---,0.00,VWS V14.01,2013-04-28 17:55:00,
2013-04-28 14:00:00,67.4,45.9,30.21,SW,219,0.0,6.0,46,0.00,,---,0.00,VWS V14.01,2013-04-28 18:00:00,
2013-04-28 14:05:00,67.4,45.9,30.21,SSE,161,0.0,4.0,46,0.00,,---,0.00,VWS V14.01,2013-04-28 18:05:00,
2013-04-28 14:10:00,67.4,45.9,30.21,SSW,193,0.0,4.0,46,0.00,,---,0.00,VWS V14.01,2013-04-28 18:10:00,
2013-04-28 14:15:00,67.5,45.4,30.20,SSW,202,1.0,4.0,45,0.00,,---,0.00,VWS V14.01,2013-04-28 18:15:00,
2013-04-28 14:20:00,67.6,45.5,30.20,SSW,213,0.0,4.0,45,0.00,,---,0.00,VWS V14.01,2013-04-28 18:20:00,
2013-04-28 14:26:00,67.6,44.9,30.20,SW,223,3.0,4.0,44,0.00,,---,0.00,VWS V14.01,2013-04-28 18:26:00,
2013-04-28 14:31:00,67.5,44.8,30.20,SW,227,0.0,1.0,44,0.00,,---,0.00,VWS V14.01,2013-04-28 18:31:00,
2013-04-28 14:36:00,67.4,44.8,30.20,South,186,0.0,4.0,44,0.00,,---,0.00,VWS V14.01,2013-04-28 18:36:00,
2013-04-28 14:41:00,67.7,45.6,30.20,SSW,194,3.0,4.0,45,0.00,,---,0.00,VWS V14.01,2013-04-28 18:41:00,
2013-04-28 14:46:00,68.3,45.6,30.20,SSW,197,1.0,4.0,44,0.00,,---,0.00,VWS V14.01,2013-04-28 18:46:00,
2013-04-28 14:51:00,68.5,45.8,30.19,South,178,4.0,5.0,44,0.00,,---,0.00,VWS V14.01,2013-04-28 18:51:00,
2013-04-28 14:56:00,68.3,45.0,30.19,SW,215,0.0,5.0,43,0.00,,---,0.00,VWS V14.01,2013-04-28 18:56:00,
2013-04-28 15:01:00,68.6,45.2,30.19,SW,219,3.0,3.0,43,0.00,,---,0.00,VWS V14.01,2013-04-28 19:01:00,
2013-04-28 15:06:00,68.8,44.8,30.19,South,190,1.0,5.0,42,0.00,,---,0.00,VWS V14.01,2013-04-28 19:06:00,
2013-04-28 15:11:00,68.5,45.1,30.19,WNW,289,0.0,5.0,43,0.00,,---,0.00,VWS V14.01,2013-04-28 19:11:00,
2013-04-28 15:17:00,68.6,44.6,30.19,NNW,339,0.0,7.0,42,0.00,,---,0.00,VWS V14.01,2013-04-28 19:17:00,
2013-04-28 15:22:00,68.7,44.7,30.19,SSW,192,3.0,7.0,42,0.00,,---,0.00,VWS V14.01,2013-04-28 19:22:00,
2013-04-28 15:27:00,68.3,44.3,30.18,South,191,1.0,7.0,42,0.00,,---,0.00,VWS V14.01,2013-04-28 19:27:00,
2013-04-28 15:32:00,68.2,44.9,30.18,SSW,195,0.0,2.0,43,0.00,,---,0.00,VWS V14.01,2013-04-28 19:32:00,
2013-04-28 15:37:00,68.1,45.4,30.18,SW,215,0.0,4.0,44,0.00,,---,0.00,VWS V14.01,2013-04-28 19:37:00,
2013-04-28 15:42:00,68.0,45.3,30.18,SW,220,0.0,4.0,44,0.00,,---,0.00,VWS V14.01,2013-04-28 19:42:00,
2013-04-28 15:47:00,67.7,45.0,30.18,South,191,4.0,5.0,44,0.00,,---,0.00,VWS V14.01,2013-04-28 19:47:00,
2013-04-28 15:52:00,67.5,44.8,30.18,SSW,211,0.0,5.0,44,0.00,,---,0.00,VWS V14.01,2013-04-28 19:52:00,
2013-04-28 15:57:00,67.4,44.8,30.18,South,188,1.0,5.0,44,0.00,,---,0.00,VWS V14.01,2013-04-28 19:57:00,
2013-04-28 16:02:00,67.2,44.6,30.18,SSW,192,0.0,3.0,44,0.00,,---,0.00,VWS V14.01,2013-04-28 20:02:00,
2013-04-28 16:07:00,67.0,44.4,30.18,WNW,302,0.0,4.0,44,0.00,,---,0.00,VWS V14.01,2013-04-28 20:07:00,
2013-04-28 16:13:00,66.9,44.9,30.17,South,189,1.0,4.0,45,0.00,,---,0.00,VWS V14.01,2013-04-28 20:13:00,
2013-04-28 16:18:00,66.7,45.3,30.17,SW,227,0.0,4.0,46,0.00,,---,0.00,VWS V14.01,2013-04-28 20:18:00,
2013-04-28 16:23:00,67.0,45.6,30.17,South,188,1.0,5.0,46,0.00,,---,0.00,VWS V14.01,2013-04-28 20:23:00,
2013-04-28 16:28:00,66.8,45.4,30.17,SSW,196,0.0,5.0,46,0.00,,---,0.00,VWS V14.01,2013-04-28 20:28:00,
2013-04-28 16:33:00,66.6,45.2,30.17,SSW,194,0.0,2.0,46,0.00,,---,0.00,VWS V14.01,2013-04-28 20:33:00,
2013-04-28 16:38:00,66.6,45.8,30.17,SSW,206,1.0,3.0,47,0.00,,---,0.00,VWS V14.01,2013-04-28 20:38:00,
2013-04-28 16:43:00,66.7,45.3,30.17,SSW,194,1.0,3.0,46,0.00,,---,0.00,VWS V14.01,2013-04-28 20:43:00,
2013-04-28 16:48:00,66.5,45.7,30.17,South,188,0.0,4.0,47,0.00,,---,0.00,VWS V14.01,2013-04-28 20:48:00,
2013-04-28 16:53:00,66.3,45.5,30.17,South,186,3.0,4.0,47,0.00,,---,0.00,VWS V14.01,2013-04-28 20:53:00,
2013-04-28 16:58:00,66.2,45.4,30.17,SSW,205,1.0,4.0,47,0.00,,---,0.00,VWS V14.01,2013-04-28 20:58:00,
2013-04-28 17:03:00,65.9,45.1,30.17,SW,215,0.0,3.0,47,0.00,,---,0.00,VWS V14.01,2013-04-28 21:03:00,
2013-04-28 17:09:00,65.8,45.0,30.16,SSW,194,2.0,3.0,47,0.00,,---,0.00,VWS V14.01,2013-04-28 21:09:00,
2013-04-28 17:14:00,65.6,44.3,30.16,SSW,195,0.0,3.0,46,0.00,,---,0.00,VWS V14.01,2013-04-28 21:14:00,
2013-04-28 17:19:00,65.5,44.8,30.16,SSW,196,2.0,4.0,47,0.00,,---,0.00,VWS V14.01,2013-04-28 21:19:00,
2013-04-28 17:24:00,65.4,44.7,30.16,SSW,196,0.0,4.0,47,0.00,,---,0.00,VWS V14.01,2013-04-28 21:24:00,
2013-04-28 17:29:00,65.4,44.7,30.16,SSW,192,1.0,4.0,47,0.00,,---,0.00,VWS V14.01,2013-04-28 21:29:00,
2013-04-28 17:34:00,65.4,44.7,30.16,SSW,192,1.0,2.0,47,0.00,,---,0.00,VWS V14.01,2013-04-28 21:34:00,
2013-04-28 17:39:00,65.4,44.7,30.16,SSW,192,3.0,3.0,47,0.00,,---,0.00,VWS V14.01,2013-04-28 21:39:00,
2013-04-28 17:44:00,65.1,44.4,30.15,South,178,0.0,3.0,47,0.00,,---,0.00,VWS V14.01,2013-04-28 21:44:00,
2013-04-28 17:49:00,64.9,44.8,30.15,South,190,3.0,3.0,48,0.00,,---,0.00,VWS V14.01,2013-04-28 21:49:00,
2013-04-28 17:55:00,64.7,44.0,30.15,South,190,1.0,3.0,47,0.00,,---,0.00,VWS V14.01,2013-04-28 21:55:00,
2013-04-28 18:00:00,64.5,43.8,30.15,SSE,157,0.0,3.0,47,0.00,,---,0.00,VWS V14.01,2013-04-28 22:00:00,
2013-04-28 18:05:00,64.3,43.7,30.15,South,178,1.0,3.0,47,0.00,,---,0.00,VWS V14.01,2013-04-28 22:05:00,
2013-04-28 18:10:00,64.3,42.5,30.15,South,176,0.0,4.0,45,0.00,,---,0.00,VWS V14.01,2013-04-28 22:10:00,
2013-04-28 18:15:00,64.0,42.3,30.15,South,179,0.0,4.0,45,0.00,,---,0.00,VWS V14.01,2013-04-28 22:15:00,
2013-04-28 18:20:00,63.9,42.2,30.15,South,181,0.0,4.0,45,0.00,,---,0.00,VWS V14.01,2013-04-28 22:20:00,
2013-04-28 18:25:00,63.7,42.0,30.15,SSW,200,1.0,4.0,45,0.00,,---,0.00,VWS V14.01,2013-04-28 22:25:00,
2013-04-28 18:30:00,63.4,41.7,30.15,SSW,194,0.0,1.0,45,0.00,,---,0.00,VWS V14.01,2013-04-28 22:30:00,
2013-04-28 18:35:00,63.1,42.0,30.15,SSW,194,0.0,1.0,46,0.00,,---,0.00,VWS V14.01,2013-04-28 22:35:00,
2013-04-28 18:41:00,62.9,41.3,30.15,South,184,0.0,3.0,45,0.00,,---,0.00,VWS V14.01,2013-04-28 22:41:00,
2013-04-28 18:46:00,62.6,41.5,30.15,South,184,0.0,3.0,46,0.00,,---,0.00,VWS V14.01,2013-04-28 22:46:00,
2013-04-28 18:51:00,62.3,41.3,30.15,South,191,1.0,3.0,46,0.00,,---,0.00,VWS V14.01,2013-04-28 22:51:00,
2013-04-28 18:56:00,62.0,41.0,30.16,SSW,195,0.0,5.0,46,0.00,,---,0.00,VWS V14.01,2013-04-28 22:56:00,
2013-04-28 19:01:00,61.8,40.8,30.15,South,179,3.0,4.0,46,0.00,,---,0.00,VWS V14.01,2013-04-28 23:01:00,
2013-04-28 19:06:00,61.6,40.6,30.16,South,184,0.0,4.0,46,0.00,,---,0.00,VWS V14.01,2013-04-28 23:06:00,
2013-04-28 19:11:00,61.4,40.5,30.16,SSW,211,1.0,4.0,46,0.00,,---,0.00,VWS V14.01,2013-04-28 23:11:00,
2013-04-28 19:16:00,61.2,40.3,30.16,South,188,0.0,4.0,46,0.00,,---,0.00,VWS V14.01,2013-04-28 23:16:00,
2013-04-28 19:21:00,61.0,40.1,30.16,South,189,0.0,4.0,46,0.00,,---,0.00,VWS V14.01,2013-04-28 23:21:00,
2013-04-28 19:26:00,60.8,40.5,30.16,SSW,208,0.0,4.0,47,0.00,,---,0.00,VWS V14.01,2013-04-28 23:26:00,
2013-04-28 19:32:00,60.5,40.2,30.16,SSW,208,0.0,0.0,47,0.00,,---,0.00,VWS V14.01,2013-04-28 23:32:00,
2013-04-28 19:37:00,60.3,40.0,30.16,NW,310,0.0,4.0,47,0.00,,---,0.00,VWS V14.01,2013-04-28 23:37:00,
2013-04-28 19:42:00,60.1,39.8,30.16,SSW,194,0.0,4.0,47,0.00,,---,0.00,VWS V14.01,2013-04-28 23:42:00,
2013-04-28 19:47:00,59.9,39.6,30.16,SSW,196,0.0,4.0,47,0.00,,---,0.00,VWS V14.01,2013-04-28 23:47:00,
2013-04-28 19:52:00,59.6,39.4,30.16,SSW,196,0.0,4.0,47,0.00,,---,0.00,VWS V14.01,2013-04-28 23:52:00,
2013-04-28 19:57:00,59.4,39.2,30.16,SSW,194,0.0,4.0,47,0.00,,---,0.00,VWS V14.01,2013-04-28 23:57:00,
2013-04-28 20:02:00,59.1,38.9,30.16,SSW,194,0.0,2.0,47,0.00,,---,0.00,VWS V14.01,2013-04-29 00:02:00,
2013-04-28 20:07:00,59.0,39.4,30.16,SSW,194,0.0,3.0,48,0.00,,---,0.00,VWS V14.01,2013-04-29 00:07:00,
2013-04-28 20:12:00,58.8,39.2,30.15,SSW,200,0.0,3.0,48,0.00,,---,0.00,VWS V14.01,2013-04-29 00:12:00,
2013-04-28 20:17:00,58.5,38.9,30.15,North,355,0.0,3.0,48,0.00,,---,0.00,VWS V14.01,2013-04-29 00:17:00,
2013-04-28 20:23:00,58.2,38.6,30.16,SSW,208,0.0,4.0,48,0.00,,---,0.00,VWS V14.01,2013-04-29 00:23:00,
2013-04-28 20:28:00,57.9,38.3,30.16,SSW,208,0.0,4.0,48,0.00,,---,0.00,VWS V14.01,2013-04-29 00:28:00,
2013-04-28 20:33:00,57.8,38.3,30.16,SSW,208,0.0,2.0,48,0.00,,---,0.00,VWS V14.01,2013-04-29 00:33:00,
2013-04-28 20:38:00,57.6,38.6,30.16,SSW,208,0.0,2.0,49,0.00,,---,0.00,VWS V14.01,2013-04-29 00:38:00,
2013-04-28 20:43:00,57.5,38.5,30.16,SSW,208,0.0,2.0,49,0.00,,---,0.00,VWS V14.01,2013-04-29 00:43:00,
2013-04-28 20:48:00,57.4,38.4,30.17,SSW,208,0.0,3.0,49,0.00,,---,0.00,VWS V14.01,2013-04-29 00:48:00,
2013-04-28 20:53:00,57.3,38.3,30.17,South,178,0.0,3.0,49,0.00,,---,0.00,VWS V14.01,2013-04-29 00:53:00,
2013-04-28 20:58:00,57.1,37.6,30.17,South,191,0.0,3.0,48,0.00,,---,0.00,VWS V14.01,2013-04-29 00:58:00,
2013-04-28 21:03:00,57.0,38.0,30.17,South,178,1.0,2.0,49,0.00,,---,0.00,VWS V14.01,2013-04-29 01:03:00,
2013-04-28 21:09:00,56.8,37.9,30.17,South,178,0.0,2.0,49,0.00,,---,0.00,VWS V14.01,2013-04-29 01:09:00,
2013-04-28 21:14:00,56.6,37.7,30.17,South,178,0.0,2.0,49,0.00,,---,0.00,VWS V14.01,2013-04-29 01:14:00,
2013-04-28 21:19:00,56.4,38.0,30.17,South,178,1.0,2.0,50,0.00,,---,0.00,VWS V14.01,2013-04-29 01:19:00,
2013-04-28 21:24:00,56.3,37.4,30.17,South,178,0.0,2.0,49,0.00,,---,0.00,VWS V14.01,2013-04-29 01:24:00,
2013-04-28 21:29:00,56.2,37.3,30.17,South,178,1.0,2.0,49,0.00,,---,0.00,VWS V14.01,2013-04-29 01:29:00,
2013-04-28 21:34:00,56.0,37.1,30.17,South,178,0.0,1.0,49,0.00,,---,0.00,VWS V14.01,2013-04-29 01:34:00,
2013-04-28 21:39:00,55.9,36.5,30.18,South,180,0.0,2.0,48,0.00,,---,0.00,VWS V14.01,2013-04-29 01:39:00,
2013-04-28 21:44:00,55.8,36.9,30.18,South,180,0.0,2.0,49,0.00,,---,0.00,VWS V14.01,2013-04-29 01:44:00,
2013-04-28 21:50:00,55.7,36.3,30.18,South,180,0.0,2.0,48,0.00,,---,0.00,VWS V14.01,2013-04-29 01:50:00,
2013-04-28 21:55:00,55.6,36.8,30.18,SE,146,0.0,2.0,49,0.00,,---,0.00,VWS V14.01,2013-04-29 01:55:00,
2013-04-28 22:00:00,55.5,36.2,30.18,South,170,0.0,2.0,48,0.00,,---,0.00,VWS V14.01,2013-04-29 02:00:00,
2013-04-28 22:05:00,55.5,36.7,30.18,South,171,0.0,2.0,49,0.00,,---,0.00,VWS V14.01,2013-04-29 02:05:00,
2013-04-28 22:10:00,55.3,36.5,30.18,South,171,0.0,2.0,49,0.00,,---,0.00,VWS V14.01,2013-04-29 02:10:00,
2013-04-28 22:15:00,55.2,36.4,30.19,SSE,152,0.0,2.0,49,0.00,,---,0.00,VWS V14.01,2013-04-29 02:15:00,
2013-04-28 22:20:00,55.1,36.3,30.19,South,191,1.0,2.0,49,0.00,,---,0.00,VWS V14.01,2013-04-29 02:20:00,
2013-04-28 22:25:00,55.0,36.7,30.19,SW,215,0.0,2.0,50,0.00,,---,0.00,VWS V14.01,2013-04-29 02:25:00,
2013-04-28 22:30:00,55.0,36.7,30.19,SW,215,0.0,0.0,50,0.00,,---,0.00,VWS V14.01,2013-04-29 02:30:00,
2013-04-28 22:36:00,54.8,36.5,30.19,SW,215,0.0,1.0,50,0.00,,---,0.00,VWS V14.01,2013-04-29 02:36:00,
2013-04-28 22:41:00,54.7,37.4,30.19,SW,215,0.0,1.0,52,0.00,,---,0.00,VWS V14.01,2013-04-29 02:41:00,
2013-04-28 22:46:00,54.6,37.3,30.19,SW,215,0.0,1.0,52,0.00,,---,0.00,VWS V14.01,2013-04-29 02:46:00,
2013-04-28 22:51:00,54.4,37.6,30.19,SW,215,0.0,1.0,53,0.00,,---,0.00,VWS V14.01,2013-04-29 02:51:00,
2013-04-28 22:56:00,54.3,37.5,30.19,ESE,115,0.0,1.0,53,0.00,,---,0.00,VWS V14.01,2013-04-29 02:56:00,
2013-04-28 23:01:00,54.2,37.9,30.19,ESE,115,0.0,0.0,54,0.00,,---,0.00,VWS V14.01,2013-04-29 03:01:00,
2013-04-28 23:06:00,54.1,38.3,30.19,ESE,115,0.0,0.0,55,0.00,,---,0.00,VWS V14.01,2013-04-29 03:06:00,
2013-04-28 23:11:00,54.0,38.7,30.19,South,177,0.0,1.0,56,0.00,,---,0.00,VWS V14.01,2013-04-29 03:11:00,
2013-04-28 23:16:00,53.8,38.5,30.19,South,177,0.0,1.0,56,0.00,,---,0.00,VWS V14.01,2013-04-29 03:16:00,
2013-04-28 23:21:00,53.7,38.8,30.19,ESE,111,0.0,1.0,57,0.00,,---,0.00,VWS V14.01,2013-04-29 03:21:00,
2013-04-28 23:27:00,53.6,39.2,30.19,ESE,123,0.0,1.0,58,0.00,,---,0.00,VWS V14.01,2013-04-29 03:27:00,
2013-04-28 23:32:00,53.5,40.0,30.19,ESE,123,0.0,0.0,60,0.00,,---,0.00,VWS V14.01,2013-04-29 03:32:00,
2013-04-28 23:37:00,53.3,40.2,30.19,ESE,115,0.0,1.0,61,0.00,,---,0.00,VWS V14.01,2013-04-29 03:37:00,
2013-04-28 23:42:00,53.1,40.8,30.19,South,177,0.0,1.0,63,0.00,,---,0.00,VWS V14.01,2013-04-29 03:42:00,
2013-04-28 23:47:00,52.9,41.1,30.19,South,189,0.0,1.0,64,0.00,,---,0.00,VWS V14.01,2013-04-29 03:47:00,
2013-04-28 23:52:00,52.7,41.7,30.19,West,260,0.0,1.0,66,0.00,,---,0.00,VWS V14.01,2013-04-29 03:52:00,
2013-04-28 23:57:00,52.5,43.0,30.19,SW,231,0.0,1.0,70,0.00,,---,0.00,VWS V14.01,2013-04-29 03:57:00,